Location: La Tine
(46.4708°N, 7.0525°E)
Time: 08:48:20
(UTC+00:00)

Cosmos 1833 Rocket - Pass Details

Date: 26 January 2021
Orbit: 833 x 839 km, 71.0° (Epoch: 24 February)

Event Time Altitude Azimuth Distance (km) Brightness Sun altitude
Rises 17:50:58 0° 335° (NNW) 3,392 6.0 -14.4°
Reaches altitude 10° 17:53:28 10° 340° (NNW) 2,455 5.2 -14.8°
Maximum altitude 17:59:01 58° 59° (ENE) 973 2.7 -15.8°
Drops below altitude 10° 18:04:32 10° 138° (SE) 2,443 4.8 -16.7°
Enters shadow 18:06:38 - 142° (SE) 3,231 5.5 -17.1°
